User: anonymous   Login
Location: Kitchener
(43.4500°N, 80.5000°W)
Time: 09:46:41
(UTC-04:00)
Language:

ATLAS 5 CENTAUR R/B - Orbit

View from above orbital plane
View from above orbital plane
View from above satellite
View from above satellite

Ground track
Ground track

The orbit data is extracted from the following two-line orbital elements,

1 31702U 07027B   16273.83419471 0.00000500  00000-0  17774-3 0    02
2 31702  63.3712 261.3273 0247315   0.7957 359.2043 14.18514618    06
Epoch (UTC): 29 September 2016 20:01:14
Eccentricity: 0.0247315
inclination: 63.3712°
perigee height: 652 km
apogee height: 1008 km
right ascension of ascending node: 261.3273°
argument of perigee: 0.7957°
revolutions per day: 14.18514618
mean anomaly at epoch: 359.2043°
orbit number at epoch: 0

The dashed part of the orbit path shows where the satellite is in the earth's shadow,  

DLR